Time,TemperatureF,DewpointF,PressureIn,WindDirection,WindDirectionDegrees,WindSpeedMPH,WindSpeedGustMPH,Humidity,HourlyPrecipIn,Conditions,Clouds,dailyrainin,SoftwareType,DateUTC
2013-03-11 00:03:00,68.0,60.0,30.11,East,91,9.0,14.0,73,-99.99,,,-99.99,,2013-03-11 04:03:00,
2013-03-11 00:12:00,68.0,59.0,30.11,East,96,10.0,17.0,73,-99.99,,,-99.99,,2013-03-11 04:12:00,
2013-03-11 00:22:00,68.0,59.0,30.11,East,96,10.0,17.0,73,-99.99,,,-99.99,,2013-03-11 04:22:00,
2013-03-11 00:33:00,68.0,59.0,30.10,East,100,11.0,16.0,72,-99.99,,,-99.99,,2013-03-11 04:33:00,
2013-03-11 00:43:00,68.0,59.0,30.10,East,96,10.0,19.0,73,-99.99,,,-99.99,,2013-03-11 04:43:00,
2013-03-11 00:53:00,68.0,59.0,30.10,East,94,10.0,17.0,73,-99.99,,,-99.99,,2013-03-11 04:53:00,
2013-03-11 01:03:00,68.0,59.0,30.10,East,94,10.0,17.0,73,-99.99,,,-99.99,,2013-03-11 05:03:00,
2013-03-11 01:12:00,68.0,59.0,30.09,East,94,11.0,17.0,73,-99.99,,,-99.99,,2013-03-11 05:12:00,
2013-03-11 01:22:00,68.0,59.0,30.09,East,94,11.0,17.0,73,-99.99,,,-99.99,,2013-03-11 05:22:00,
2013-03-11 01:32:00,68.0,59.0,30.09,North,7999,0.0,17.0,74,-99.99,,,-99.99,,2013-03-11 05:32:00,
2013-03-11 01:43:00,68.0,59.0,30.09,North,7999,0.0,17.0,74,-99.99,,,-99.99,,2013-03-11 05:43:00,
2013-03-11 01:52:00,68.0,59.0,30.08,East,88,7.0,8.0,74,-99.99,,,-99.99,,2013-03-11 05:52:00,
2013-03-11 02:02:00,68.0,59.0,30.08,East,88,7.0,8.0,74,-99.99,,,-99.99,,2013-03-11 06:02:00,
2013-03-11 02:12:00,67.0,59.0,30.07,East,90,8.0,14.0,75,-99.99,,,-99.99,,2013-03-11 06:12:00,
2013-03-11 02:22:00,67.0,59.0,30.07,East,90,8.0,14.0,75,-99.99,,,-99.99,,2013-03-11 06:22:00,
2013-03-11 02:32:00,67.0,59.0,30.07,ENE,68,10.0,15.0,74,-99.99,,,-99.99,,2013-03-11 06:32:00,
2013-03-11 02:42:00,67.0,59.0,30.07,North,7999,0.0,15.0,73,-99.99,,,-99.99,,2013-03-11 06:42:00,
2013-03-11 02:53:00,67.0,59.0,30.06,East,95,8.0,10.0,73,-99.99,,,-99.99,,2013-03-11 06:53:00,
2013-03-11 03:03:00,67.0,59.0,30.06,East,95,8.0,10.0,73,-99.99,,,-99.99,,2013-03-11 07:03:00,
2013-03-11 03:12:00,67.0,58.0,30.06,ESE,108,12.0,104.0,73,-99.99,,,-99.99,,2013-03-11 07:12:00,
2013-03-11 03:22:00,67.0,58.0,30.06,ESE,108,12.0,104.0,73,-99.99,,,-99.99,,2013-03-11 07:22:00,
2013-03-11 03:32:00,67.0,59.0,30.05,East,93,7.0,12.0,73,-99.99,,,-99.99,,2013-03-11 07:32:00,
2013-03-11 03:42:00,68.0,59.0,30.04,ESE,103,8.0,13.0,73,-99.99,,,-99.99,,2013-03-11 07:42:00,
2013-03-11 03:52:00,67.0,59.0,30.04,ESE,106,9.0,15.0,73,-99.99,,,-99.99,,2013-03-11 07:52:00,
2013-03-11 04:02:00,67.0,59.0,30.04,ESE,106,9.0,15.0,73,-99.99,,,-99.99,,2013-03-11 08:02:00,
2013-03-11 04:12:00,67.0,59.0,30.04,ESE,108,8.0,15.0,74,-99.99,,,-99.99,,2013-03-11 08:12:00,
2013-03-11 04:22:00,67.0,59.0,30.04,ESE,108,8.0,15.0,74,-99.99,,,-99.99,,2013-03-11 08:22:00,
2013-03-11 04:32:00,67.0,59.0,30.04,ESE,108,8.0,15.0,74,-99.99,,,-99.99,,2013-03-11 08:32:00,
2013-03-11 04:42:00,67.0,59.0,30.02,East,97,8.0,13.0,74,-99.99,,,-99.99,,2013-03-11 08:42:00,
2013-03-11 04:52:00,68.0,59.0,30.02,North,7999,0.0,13.0,74,-99.99,,,-99.99,,2013-03-11 08:52:00,
2013-03-11 05:02:00,68.0,59.0,30.02,North,7999,0.0,13.0,74,-99.99,,,-99.99,,2013-03-11 09:02:00,
2013-03-11 05:12:00,68.0,59.0,30.02,NNW,342,40.0,45.0,74,-99.99,,,-99.99,,2013-03-11 09:12:00,
2013-03-11 05:23:00,68.0,59.0,30.02,NNW,342,40.0,45.0,74,-99.99,,,-99.99,,2013-03-11 09:23:00,
2013-03-11 05:32:00,67.0,59.0,30.02,North,7999,0.0,45.0,75,-99.99,,,-99.99,,2013-03-11 09:32:00,
2013-03-11 05:42:00,67.0,59.0,30.01,ESE,112,11.0,59.0,76,-99.99,,,-99.99,,2013-03-11 09:42:00,
2013-03-11 05:53:00,66.0,59.0,30.01,East,101,5.0,8.0,76,-99.99,,,-99.99,,2013-03-11 09:53:00,
2013-03-11 06:02:00,66.0,59.0,30.01,East,101,5.0,8.0,76,-99.99,,,-99.99,,2013-03-11 10:02:00,
2013-03-11 06:12:00,66.0,59.0,30.01,ESE,108,5.0,11.0,76,-99.99,,,-99.99,,2013-03-11 10:12:00,
2013-03-11 06:22:00,66.0,59.0,30.01,ESE,108,5.0,11.0,76,-99.99,,,-99.99,,2013-03-11 10:22:00,
2013-03-11 06:32:00,66.0,59.0,30.01,East,89,5.0,10.0,77,-99.99,,,-99.99,,2013-03-11 10:32:00,
2013-03-11 06:42:00,65.0,58.0,30.01,East,93,4.0,6.0,78,-99.99,,,-99.99,,2013-03-11 10:42:00,
2013-03-11 06:53:00,65.0,58.0,30.01,East,92,4.0,6.0,77,-99.99,,,-99.99,,2013-03-11 10:53:00,
2013-03-11 07:02:00,65.0,58.0,30.01,East,92,4.0,6.0,77,-99.99,,,-99.99,,2013-03-11 11:02:00,
2013-03-11 07:12:00,66.0,59.0,30.01,East,84,5.0,8.0,77,-99.99,,,-99.99,,2013-03-11 11:12:00,
2013-03-11 07:23:00,66.0,59.0,30.01,East,84,5.0,8.0,77,-99.99,,,-99.99,,2013-03-11 11:23:00,
2013-03-11 07:33:00,66.0,59.0,30.01,East,84,5.0,8.0,77,-99.99,,,-99.99,,2013-03-11 11:33:00,
2013-03-11 07:42:00,67.0,59.0,30.01,ESE,104,7.0,11.0,73,-99.99,,,-99.99,,2013-03-11 11:42:00,
2013-03-11 07:53:00,68.0,59.0,30.01,ESE,110,7.0,12.0,73,-99.99,,,-99.99,,2013-03-11 11:53:00,
2013-03-11 08:02:00,68.0,59.0,30.01,ESE,110,7.0,12.0,73,-99.99,,,-99.99,,2013-03-11 12:02:00,
2013-03-11 08:12:00,68.0,59.0,30.02,ESE,109,6.0,9.0,73,-99.99,,,-99.99,,2013-03-11 12:12:00,
2013-03-11 08:22:00,68.0,59.0,30.02,ESE,109,6.0,9.0,73,-99.99,,,-99.99,,2013-03-11 12:22:00,
2013-03-11 08:33:00,67.0,59.0,30.02,ESE,113,4.0,7.0,75,-99.99,,,-99.99,,2013-03-11 12:33:00,
2013-03-11 08:43:00,67.0,59.0,30.02,ESE,113,4.0,7.0,75,-99.99,,,-99.99,,2013-03-11 12:43:00,
2013-03-11 08:53:00,67.0,59.0,30.03,SE,130,4.0,6.0,74,-99.99,,,-99.99,,2013-03-11 12:53:00,
2013-03-11 09:03:00,67.0,59.0,30.03,SE,130,4.0,6.0,74,-99.99,,,-99.99,,2013-03-11 13:03:00,
2013-03-11 09:12:00,69.0,59.0,30.03,SE,137,4.0,6.0,71,-99.99,,,-99.99,,2013-03-11 13:12:00,
2013-03-11 09:22:00,69.0,59.0,30.03,SE,137,4.0,6.0,71,-99.99,,,-99.99,,2013-03-11 13:22:00,
2013-03-11 09:32:00,69.0,60.0,30.04,SE,139,4.0,6.0,71,-99.99,,,-99.99,,2013-03-11 13:32:00,
2013-03-11 09:42:00,68.0,59.0,30.04,SE,141,4.0,6.0,73,-99.99,,,-99.99,,2013-03-11 13:42:00,
2013-03-11 09:53:00,70.0,60.0,30.04,SE,145,5.0,11.0,69,-99.99,,,-99.99,,2013-03-11 13:53:00,
2013-03-11 10:02:00,70.0,60.0,30.04,SE,145,5.0,11.0,69,-99.99,,,-99.99,,2013-03-11 14:02:00,
2013-03-11 10:12:00,73.0,59.0,30.04,SE,134,9.0,16.0,62,-99.99,,,-99.99,,2013-03-11 14:12:00,
2013-03-11 10:22:00,73.0,59.0,30.04,SE,134,9.0,16.0,62,-99.99,,,-99.99,,2013-03-11 14:22:00,
2013-03-11 10:33:00,73.0,59.0,30.04,SE,134,9.0,16.0,62,-99.99,,,-99.99,,2013-03-11 14:33:00,
2013-03-11 10:42:00,72.0,60.0,30.05,SSE,162,11.0,17.0,63,-99.99,,,-99.99,,2013-03-11 14:42:00,
2013-03-11 10:53:00,72.0,60.0,30.05,SSE,158,8.0,14.0,64,-99.99,,,-99.99,,2013-03-11 14:53:00,
2013-03-11 11:03:00,72.0,60.0,30.05,SSE,158,8.0,14.0,64,-99.99,,,-99.99,,2013-03-11 15:03:00,
2013-03-11 11:13:00,73.0,59.0,30.05,SSE,153,11.0,17.0,60,-99.99,,,-99.99,,2013-03-11 15:13:00,
2013-03-11 11:23:00,73.0,59.0,30.05,SSE,153,11.0,17.0,60,-99.99,,,-99.99,,2013-03-11 15:23:00,
2013-03-11 11:32:00,73.0,59.0,30.05,SSE,148,10.0,18.0,59,-99.99,,,-99.99,,2013-03-11 15:32:00,
2013-03-11 11:42:00,74.0,59.0,30.05,SSE,155,13.0,21.0,59,-99.99,,,-99.99,,2013-03-11 15:42:00,
2013-03-11 11:53:00,73.0,59.0,30.05,SE,144,13.0,20.0,59,-99.99,,,-99.99,,2013-03-11 15:53:00,
2013-03-11 12:03:00,73.0,59.0,30.05,SE,144,13.0,20.0,59,-99.99,,,-99.99,,2013-03-11 16:03:00,
2013-03-11 12:13:00,74.0,59.0,30.04,SE,146,12.0,19.0,59,-99.99,,,-99.99,,2013-03-11 16:13:00,
2013-03-11 12:22:00,74.0,59.0,30.04,SE,146,12.0,19.0,59,-99.99,,,-99.99,,2013-03-11 16:22:00,
2013-03-11 12:32:00,75.0,60.0,30.04,SSE,156,14.0,22.0,58,-99.99,,,-99.99,,2013-03-11 16:32:00,
2013-03-11 12:43:00,75.0,60.0,30.05,SSE,157,11.0,19.0,58,-99.99,,,-99.99,,2013-03-11 16:43:00,
2013-03-11 12:53:00,75.0,59.0,30.04,SSE,147,11.0,22.0,57,-99.99,,,-99.99,,2013-03-11 16:53:00,
2013-03-11 13:03:00,75.0,59.0,30.04,SSE,147,11.0,22.0,57,-99.99,,,-99.99,,2013-03-11 17:03:00,
2013-03-11 13:17:00,75.0,58.0,30.03,SSE,158,12.0,19.0,54,-99.99,,,-99.99,,2013-03-11 17:17:00,
2013-03-11 13:28:00,75.0,58.0,30.03,SSE,158,12.0,19.0,54,-99.99,,,-99.99,,2013-03-11 17:28:00,
2013-03-11 13:37:00,75.0,58.0,30.03,SE,145,10.0,18.0,54,-99.99,,,-99.99,,2013-03-11 17:37:00,
2013-03-11 13:42:00,76.0,58.0,30.02,SSE,156,11.0,17.0,54,-99.99,,,-99.99,,2013-03-11 17:42:00,
2013-03-11 13:53:00,75.0,58.0,30.02,SE,144,11.0,18.0,55,-99.99,,,-99.99,,2013-03-11 17:53:00,
2013-03-11 14:02:00,75.0,58.0,30.02,SE,144,11.0,18.0,55,-99.99,,,-99.99,,2013-03-11 18:02:00,
2013-03-11 14:12:00,76.0,58.0,30.01,SSE,153,11.0,17.0,53,-99.99,,,-99.99,,2013-03-11 18:12:00,
2013-03-11 14:23:00,76.0,58.0,30.01,SSE,153,11.0,17.0,53,-99.99,,,-99.99,,2013-03-11 18:23:00,
2013-03-11 14:33:00,76.0,59.0,30.01,SE,144,11.0,21.0,54,-99.99,,,-99.99,,2013-03-11 18:33:00,
2013-03-11 14:42:00,76.0,59.0,30.00,SE,146,10.0,17.0,55,-99.99,,,-99.99,,2013-03-11 18:42:00,
2013-03-11 14:53:00,76.0,59.0,30.00,SSE,152,11.0,17.0,55,-99.99,,,-99.99,,2013-03-11 18:53:00,
2013-03-11 15:02:00,76.0,59.0,30.00,SSE,152,11.0,17.0,55,-99.99,,,-99.99,,2013-03-11 19:02:00,
2013-03-11 15:13:00,76.0,59.0,30.01,SSE,151,12.0,21.0,56,-99.99,,,-99.99,,2013-03-11 19:13:00,
2013-03-11 15:23:00,76.0,59.0,30.01,SSE,151,12.0,21.0,56,-99.99,,,-99.99,,2013-03-11 19:23:00,
2013-03-11 15:33:00,75.0,60.0,30.01,SSE,154,11.0,17.0,58,-99.99,,,-99.99,,2013-03-11 19:33:00,
2013-03-11 15:43:00,75.0,60.0,30.01,SSE,156,10.0,17.0,60,-99.99,,,-99.99,,2013-03-11 19:43:00,
2013-03-11 15:53:00,75.0,61.0,30.00,SSE,147,10.0,21.0,60,-99.99,,,-99.99,,2013-03-11 19:53:00,
2013-03-11 16:02:00,75.0,61.0,30.00,SSE,147,10.0,21.0,60,-99.99,,,-99.99,,2013-03-11 20:02:00,
2013-03-11 16:12:00,74.0,61.0,30.01,SSE,155,9.0,15.0,62,-99.99,,,-99.99,,2013-03-11 20:12:00,
2013-03-11 16:22:00,74.0,61.0,30.01,SSE,155,9.0,15.0,62,-99.99,,,-99.99,,2013-03-11 20:22:00,
2013-03-11 16:32:00,74.0,60.0,30.01,SSE,160,8.0,14.0,60,-99.99,,,-99.99,,2013-03-11 20:32:00,
2013-03-11 16:43:00,74.0,60.0,30.00,SSE,160,10.0,14.0,61,-99.99,,,-99.99,,2013-03-11 20:43:00,
2013-03-11 16:53:00,75.0,61.0,30.00,SSE,166,10.0,15.0,60,-99.99,,,-99.99,,2013-03-11 20:53:00,
2013-03-11 17:03:00,75.0,61.0,30.00,SSE,166,10.0,15.0,60,-99.99,,,-99.99,,2013-03-11 21:03:00,
2013-03-11 17:13:00,75.0,61.0,29.99,SSE,155,10.0,16.0,61,-99.99,,,-99.99,,2013-03-11 21:13:00,
2013-03-11 17:23:00,75.0,61.0,29.99,SSE,155,10.0,16.0,61,-99.99,,,-99.99,,2013-03-11 21:23:00,
2013-03-11 17:33:00,74.0,61.0,29.99,SSE,164,10.0,17.0,63,-99.99,,,-99.99,,2013-03-11 21:33:00,
2013-03-11 17:44:00,74.0,61.0,29.98,SE,141,11.0,16.0,62,-99.99,,,-99.99,,2013-03-11 21:44:00,
2013-03-11 17:54:00,75.0,61.0,29.97,SE,146,12.0,19.0,61,-99.99,,,-99.99,,2013-03-11 21:54:00,
2013-03-11 18:03:00,75.0,61.0,29.97,SE,146,12.0,19.0,61,-99.99,,,-99.99,,2013-03-11 22:03:00,
2013-03-11 18:13:00,74.0,61.0,29.96,SSE,153,13.0,21.0,62,-99.99,,,-99.99,,2013-03-11 22:13:00,
2013-03-11 18:23:00,74.0,61.0,29.96,SSE,153,13.0,21.0,62,-99.99,,,-99.99,,2013-03-11 22:23:00,
2013-03-11 18:32:00,73.0,61.0,29.95,SSE,149,13.0,19.0,63,-99.99,,,-99.99,,2013-03-11 22:32:00,
2013-03-11 18:43:00,73.0,61.0,29.95,SSE,149,13.0,19.0,63,-99.99,,,-99.99,,2013-03-11 22:43:00,
2013-03-11 18:53:00,72.0,61.0,29.95,SSE,149,11.0,17.0,67,-99.99,,,-99.99,,2013-03-11 22:53:00,
2013-03-11 19:03:00,72.0,61.0,29.95,SSE,149,11.0,17.0,67,-99.99,,,-99.99,,2013-03-11 23:03:00,
2013-03-11 19:12:00,72.0,61.0,29.95,SE,146,12.0,18.0,67,-99.99,,,-99.99,,2013-03-11 23:12:00,
2013-03-11 19:22:00,72.0,61.0,29.95,SE,146,12.0,18.0,67,-99.99,,,-99.99,,2013-03-11 23:22:00,
2013-03-11 19:32:00,72.0,61.0,29.95,SE,146,12.0,18.0,67,-99.99,,,-99.99,,2013-03-11 23:32:00,
2013-03-11 19:43:00,71.0,61.0,29.96,SSE,150,8.0,13.0,70,-99.99,,,-99.99,,2013-03-11 23:43:00,
2013-03-11 19:54:00,70.0,61.0,29.96,SSE,150,8.0,12.0,72,-99.99,,,-99.99,,2013-03-11 23:54:00,
2013-03-11 20:02:00,70.0,61.0,29.96,SSE,150,8.0,12.0,72,-99.99,,,-99.99,,2013-03-12 00:02:00,
2013-03-11 20:13:00,70.0,61.0,29.96,SSE,154,7.0,12.0,73,-99.99,,,-99.99,,2013-03-12 00:13:00,
2013-03-11 20:23:00,70.0,61.0,29.96,SSE,154,7.0,12.0,73,-99.99,,,-99.99,,2013-03-12 00:23:00,
2013-03-11 20:33:00,69.0,61.0,29.97,SSE,157,7.0,11.0,73,-99.99,,,-99.99,,2013-03-12 00:33:00,
2013-03-11 20:43:00,69.0,61.0,29.97,SSE,148,5.0,8.0,74,-99.99,,,-99.99,,2013-03-12 00:43:00,
2013-03-11 20:54:00,69.0,61.0,29.98,SE,135,3.0,6.0,76,-99.99,,,-99.99,,2013-03-12 00:54:00,
2013-03-11 21:02:00,69.0,61.0,29.98,SE,135,3.0,6.0,76,-99.99,,,-99.99,,2013-03-12 01:02:00,
2013-03-11 21:12:00,68.0,61.0,29.98,SSE,148,4.0,6.0,80,-99.99,,,-99.99,,2013-03-12 01:12:00,
2013-03-11 21:22:00,68.0,61.0,29.98,SSE,148,4.0,6.0,80,-99.99,,,-99.99,,2013-03-12 01:22:00,
2013-03-11 21:33:00,67.0,62.0,29.98,SSE,168,2.0,4.0,82,-99.99,,,-99.99,,2013-03-12 01:33:00,
2013-03-11 21:42:00,67.0,62.0,29.98,SSE,168,2.0,4.0,82,-99.99,,,-99.99,,2013-03-12 01:42:00,
2013-03-11 21:53:00,65.0,62.0,29.99,SSE,150,3.0,6.0,91,-99.99,,,-99.99,,2013-03-12 01:53:00,
2013-03-11 22:02:00,65.0,62.0,29.99,SSE,150,3.0,6.0,91,-99.99,,,-99.99,,2013-03-12 02:02:00,
2013-03-11 22:13:00,66.0,62.0,29.99,SSE,152,5.0,7.0,86,-99.99,,,-99.99,,2013-03-12 02:13:00,
2013-03-11 22:22:00,66.0,62.0,29.99,SSE,152,5.0,7.0,86,-99.99,,,-99.99,,2013-03-12 02:22:00,
2013-03-11 22:32:00,67.0,62.0,29.99,SE,146,5.0,7.0,84,-99.99,,,-99.99,,2013-03-12 02:32:00,
2013-03-11 22:42:00,67.0,62.0,29.99,SE,143,4.0,6.0,83,-99.99,,,-99.99,,2013-03-12 02:42:00,
2013-03-11 22:52:00,67.0,62.0,29.99,SSE,148,4.0,7.0,83,-99.99,,,-99.99,,2013-03-12 02:52:00,
2013-03-11 23:02:00,67.0,62.0,29.99,SSE,148,4.0,7.0,83,-99.99,,,-99.99,,2013-03-12 03:02:00,
2013-03-11 23:12:00,67.0,62.0,29.99,SSE,152,5.0,6.0,84,-99.99,,,-99.99,,2013-03-12 03:12:00,
2013-03-11 23:22:00,67.0,62.0,29.99,SSE,152,5.0,6.0,84,-99.99,,,-99.99,,2013-03-12 03:22:00,
2013-03-11 23:32:00,66.0,62.0,30.00,SSE,158,5.0,7.0,85,-99.99,,,-99.99,,2013-03-12 03:32:00,
2013-03-11 23:42:00,66.0,62.0,29.99,SSE,152,6.0,9.0,85,-99.99,,,-99.99,,2013-03-12 03:42:00,
2013-03-11 23:53:00,67.0,62.0,29.99,SSE,154,7.0,9.0,83,-99.99,,,-99.99,,2013-03-12 03:53:00,